Weather History for Garrison, ND

Change the Weather History Date:

Monday, March 4, 2013

  Actual Average Record
Temperature  
Mean Temperature 26 °F -  
Max Temperature 31 °F 21 °F 44 °F (2005)
Min Temperature 21 °F 3 °F -17 °F (2003)
Degree Days  
Heating Degree Days 39    
Month to date heating degree days 152  
Moisture  
Dew Point 21 °F    
Average Humidity 92    
Maximum Humidity 100    
Minimum Humidity 84    
Precipitation  
Precipitation 0.24 in - - ()
Month to date precipitation 0.36  
Year to date precipitation 1.45  
Sea Level Pressure  
Sea Level Pressure 29.83 in    
Wind  
Wind Speed 13 mph (North)    
Max Wind Speed 29 mph    
Max Gust Speed 36 mph    
Averages and records for this station are not official NWS values.
T = Trace of Precipitation, MM = Missing Value Source: NWS Daily Summary

Daily Weather History Graph

Daily Weather History Graph

Search for Another Location

Airport:

Trip Planner

Search our weather history database for the weather conditions in past years. The results will help you decide how hot, cold, wet, or windy it might be!

Date:

Astronomy

Mar. 04, 2013 Rise Set
Actual Time 7:19 AM CST 6:35 PM CST
Civil Twilight 6:49 AM CST 7:06 PM CST
Nautical Twilight 6:13 AM CST 7:42 PM CST
Astronomical Twilight 5:37 AM CST 8:18 PM CST
Moon 1:49 AM CST (3/4) 11:00 AM CST (3/4)
Length of Visible Light 12h 17m
Length of Day
11h 15m
Waning Gibbous, 52% of the Moon is Illuminated
Mar 4
Waning Gibbous
Mar 4
Last Quarter
Mar 11
New
Mar 19
First Quarter
Mar 27
Full

Hourly Weather History & Observations

Time (CST) Temp. Windchill Dew Point Humidity Pressure Visibility Wind Dir Wind Speed Gust Speed Precip Events Conditions
12:52 AM 28.9 °F 17.7 °F 28.0 °F 96% 29.65 in - East 15.0 mph 25.3 mph 0.09 in   Unknown
1:52 AM 28.9 °F 16.9 °F 28.0 °F 96% 29.62 in - East 17.3 mph - 0.10 in   Unknown
2:52 AM 28.9 °F 20.4 °F 28.0 °F 96% 29.62 in - East 9.2 mph - 0.03 in   Unknown
3:52 AM 28.9 °F 25.2 °F 28.0 °F 96% 29.60 in - NW 3.5 mph - 0.04 in   Unknown
4:52 AM 30.0 °F 24.1 °F 28.0 °F 92% 29.62 in - WNW 5.8 mph - N/A   Unknown
5:52 AM 27.0 °F 18.0 °F 25.0 °F 92% 29.64 in - NNW 9.2 mph - N/A   Unknown
6:52 AM 25.0 °F 14.2 °F 21.9 °F 88% 29.65 in - NNW 11.5 mph - N/A   Unknown
7:52 AM 23.0 °F 12.4 °F 21.0 °F 92% 29.68 in - North 10.4 mph - N/A   Unknown
8:52 AM 21.9 °F 10.4 °F 19.9 °F 92% 29.68 in - North 11.5 mph - N/A   Unknown
9:52 AM 23.0 °F 13.1 °F 19.9 °F 88% 29.69 in - North 9.2 mph - N/A   Unknown
10:52 AM 23.0 °F 11.1 °F 19.0 °F 85% 29.71 in - NNE 12.7 mph 23.0 mph N/A   Unknown
11:52 AM 23.0 °F 11.1 °F 19.9 °F 88% 29.73 in - NNE 12.7 mph 20.7 mph N/A   Unknown
12:52 PM 21.9 °F 8.2 °F 19.0 °F 89% 29.75 in - North 16.1 mph 29.9 mph N/A   Unknown
1:52 PM 21.9 °F 8.2 °F 19.0 °F 89% 29.78 in - NNE 16.1 mph 28.8 mph N/A   Unknown
2:52 PM 21.0 °F 8.6 °F 18.0 °F 88% 29.83 in - North 12.7 mph 23.0 mph N/A   Unknown
3:52 PM 21.0 °F 6.2 °F 18.0 °F 88% 29.87 in - North 18.4 mph 31.1 mph N/A   Unknown
4:52 PM 21.0 °F 3.9 °F 19.0 °F 92% 29.92 in - North 25.3 mph 35.7 mph N/A   Unknown
5:52 PM 21.0 °F 3.9 °F 18.0 °F 88% 29.98 in - North 25.3 mph 32.2 mph N/A   Unknown
6:52 PM 21.0 °F 4.6 °F 19.0 °F 92% 30.05 in - North 23.0 mph 31.1 mph 0.01 in   Unknown
7:52 PM 19.9 °F 1.8 °F 18.0 °F 92% 30.11 in - North 27.6 mph 33.4 mph N/A   Unknown
8:52 PM 19.0 °F 0.3 °F 17.1 °F 92% 30.17 in - North 28.8 mph 38.0 mph N/A   Unknown
9:52 PM 18.0 °F 0.2 °F 16.0 °F 92% 30.20 in - North 24.2 mph 33.4 mph 0.03 in   Unknown
10:52 PM 17.1 °F 3.6 °F 14.0 °F 88% 30.22 in - North 12.7 mph 24.2 mph N/A   Unknown
11:52 PM 17.1 °F 0.1 °F 14.0 °F 88% 30.26 in - NNW 20.7 mph - N/A   Unknown